Simultaneous Nadir Overpasses (SNOs) Predictions

Prediction of SNOs between AQUA and NPP Satellite Orbit:

Table of predicted SNOs for the next 14.0 days since TLE Epoch: 12/6/2019
Index Date (AQUA) Time (AQUA) Lat,Lon (AQUA) SZA (AQUA ) Date (NPP) Time (NPP) Lat,Lon (NPP) SZA (NPP ) Distance(km) Time Diff (sec)
1 12/08/2019 14:04:59 -75.92, 27.53 61.02 12/08/2019 14:04:37 -75.92, 27.54 61.01 0.44 22
2 12/08/2019 14:54:08 76.75,-162.12 118.10 12/08/2019 14:55:03 76.74,-162.20 118.07 2.03 55
3 12/11/2019 05:34:03 69.48, -37.11 125.57 12/11/2019 05:32:50 69.56, -37.82 125.82 29.37 73
4 12/11/2019 06:21:19 -76.36, 144.78 61.17 12/11/2019 06:21:20 -76.36, 144.84 61.19 1.63 1
5 12/11/2019 07:07:32 81.80, 11.93 108.61 12/11/2019 07:08:45 81.25, 11.64 108.31 61.09 73
6 12/13/2019 21:48:40 75.47, 90.31 120.04 12/13/2019 21:47:47 75.46, 90.31 120.09 0.07 53
7 12/13/2019 22:37:48 -76.40, -99.21 60.96 12/13/2019 22:38:13 -76.39, -99.30 60.96 2.70 25
8 12/16/2019 14:05:00 75.95,-152.40 119.74 12/16/2019 14:04:30 75.95,-152.35 119.76 1.39 30
9 12/16/2019 14:54:10 -76.77, 17.94 61.15 12/16/2019 14:54:58 -76.77, 17.91 61.19 0.83 48
10 12/19/2019 06:21:29 75.98, -36.42 119.87 12/19/2019 06:21:23 75.97, -36.52 119.89 2.61 6




NCC Satellite Simultaneous Nadir Overpasses (SNOs) Prediction Service
